{"data":{"norad_id":59876,"epoch":"2026-05-25T04:37:12.139104Z","epoch_age_seconds":52194,"freshness":"FRESH","line1":"1 59876U 24098U   26145.19250161  .00000851  00000+0  40426-4 0  9994","line2":"2 59876  43.0004 206.1714 0001316 278.9582  81.1120 15.27583841113542","mean_motion":15.27583841,"eccentricity":0.0001316,"inclination_deg":43.0004,"raan_deg":206.1714,"arg_perigee_deg":278.9582,"mean_anomaly_deg":81.112,"bstar":4.0426e-5,"rev_number":11354,"period_min":94.266511686673,"perigee_km":482.13466415129,"apogee_km":483.94052530463,"semimajor_km":6861.174594728,"source":"CELESTRAK","updated_at":"2026-05-25T13:38:19.094024Z"}}